Location: Caltech
(34.1382°N, 118.1253°W)
Time: 18:08:36
(UTC-07:00)

Cosmos 1606 - Visible Passes

Search period start: 26 August 2016 00:00
Search period end: 05 September 2016 00:00
Orbit: 509 x 533 km, 82.5° (Epoch: 25 August)

Date Brightness Start Highest point End Pass type
(mag) Time Alt. Az. Time Alt. Az. Time Alt. Az.
27 Aug 4.0 05:49:06 10° SSE 05:52:51 46° E 05:56:37 10° NNE visible
28 Aug 4.4 05:35:50 10° SSE 05:39:29 38° E 05:43:08 10° NNE visible
29 Aug 4.7 05:22:36 10° SSE 05:26:07 32° E 05:29:37 10° NNE visible
30 Aug 5.0 05:09:24 10° SSE 05:12:44 27° E 05:16:06 10° NNE visible
31 Aug 5.2 04:56:15 10° SE 04:59:23 23° E 05:02:31 10° NE visible
01 Sep 5.4 04:43:09 10° SE 04:46:01 20° E 04:48:54 10° NE visible
02 Sep 5.6 04:30:06 10° SE 04:32:40 17° E 04:35:13 10° NE visible
03 Sep 5.7 04:17:10 10° ESE 04:19:19 14° E 04:21:27 10° NE visible
03 Sep 3.7 05:51:26 10° SW 05:54:49 28° W 05:58:13 10° NNW visible
04 Sep 5.8 04:04:23 10° ESE 04:05:58 12° E 04:07:32 10° ENE visible
04 Sep 3.5 05:37:51 10° SW 05:41:24 33° W 05:44:57 10° NNW visible
